DW6933 Weather Reports


Display with metric or nautical units.
time (UTC)temp
F
wind
direction
speed
MPH
gust
MPH
rain 1hr
in
rain 24hr
in
rain mn
in
humidity
%
barometer
mb
20260503050119 40 188 0.0 0.0 0.00 0.00 0.00 62 1015.3
20260503044629 41 189 0.0 0.0 0.00 0.00 0.00 57 1015.4
20260503043114 42 189 0.0 0.0 0.00 0.00 0.00 56 1015.4
20260503041606 41 189 0.0 0.0 0.00 0.00 0.00 58 1015.6
20260503040112 41 190 0.0 0.0 0.00 0.00 0.00 58 1015.7
20260503034604 42 193 0.0 0.0 0.00 0.00 0.00 58 1015.9
20260503033112 42 198 0.0 0.0 0.00 0.00 0.00 59 1016.0
20260503031502 42 199 0.0 0.0 0.00 0.00 0.00 58 1016.2
20260503030112 41 220 0.0 0.0 0.00 0.00 0.00 59 1016.3
20260503024621 40 243 0.0 0.0 0.00 0.00 0.00 62 1016.4
20260503023108 41 239 0.0 0.0 0.00 0.00 0.00 60 1016.4
20260503021619 40 236 0.0 0.0 0.00 0.00 0.00 61 1016.4
20260503020116 40 248 0.0 0.0 0.00 0.00 0.00 63 1016.5
20260503014621 41 248 0.0 0.0 0.00 0.00 0.00 64 1016.4
20260503013004 41 248 0.0 0.0 0.00 0.00 0.00 61 1016.3
20260503011612 42 248 0.0 0.0 0.00 0.00 0.00 63 1016.3
20260503010120 44 260 0.0 0.0 0.00 0.00 0.00 60 1016.3
20260503004610 46 282 0.0 0.0 0.00 0.00 0.00 53 1016.4
20260503003117 47 310 0.0 0.0 0.00 0.00 0.00 46 1016.4
20260503001608 50 305 0.0 0.0 0.00 0.00 0.00 46 1016.3
20260503000114 50 307 0.0 0.0 0.00 0.00 0.00 40 1016.3
20260502234619 51 307 0.0 6.0 0.00 0.00 0.00 39 1016.3
20260502233106 51 334 0.0 6.0 0.00 0.00 0.00 38 1016.4
20260502231617 51 331 0.0 7.0 0.00 0.00 0.00 38 1016.5
20260502230120 51 328 1.0 8.0 0.00 0.00 0.00 38 1016.5
20260502224610 51 298 1.0 8.0 0.00 0.00 0.00 36 1016.6
20260502223116 51 336 3.0 6.0 0.00 0.00 0.00 37 1016.6
20260502221608 51 1 2.0 11.0 0.00 0.00 0.00 39 1016.7
20260502220115 51 343 8.0 11.0 0.00 0.00 0.00 34 1016.7
20260502214617 51 343 6.0 13.0 0.00 0.00 0.00 34 1016.8
20260502213123 51 3 6.0 13.0 0.00 0.00 0.00 37 1016.8
20260502211503 51 332 4.0 10.0 0.00 0.00 0.00 41 1016.9
20260502210106 50 331 3.0 9.0 0.00 0.00 0.00 41 1017.0
20260502204617 51 345 0.0 9.0 0.00 0.00 0.00 43 1017.0
20260502203118 50 277 3.0 13.0 0.00 0.00 0.00 41 1017.2
20260502201615 50 355 4.0 18.0 0.00 0.00 0.00 47 1017.4
20260502200121 50 299 4.0 14.0 0.00 0.00 0.00 46 1017.5
20260502194612 50 345 2.0 14.0 0.00 0.00 0.00 48 1017.8
20260502193120 50 267 5.0 17.0 0.00 0.00 0.00 49 1017.9
20260502191612 49 345 2.0 14.0 0.00 0.00 0.00 48 1018.0
20260502190117 48 351 4.0 15.0 0.00 0.00 0.00 47 1018.2
20260502184609 49 313 0.0 17.0 0.00 0.00 0.00 46 1018.3
20260502183116 50 301 3.0 10.0 0.00 0.00 0.00 49 1018.2
20260502181610 48 342 3.0 11.0 0.00 0.00 0.00 48 1018.3
20260502180117 49 356 2.0 11.0 0.00 0.00 0.00 48 1018.5
20260502170108 48 345 0.0 12.0 0.00 0.00 0.00 47 1018.8
20260502163114 46 355 0.0 13.0 0.00 0.00 0.00 49 1018.9
20260502161622 46 346 1.0 7.0 0.00 0.00 0.00 52 1019.1
20260502160114 46 317 1.0 7.0 0.00 0.00 0.00 55 1019.2
20260502151505 45 347 1.0 5.0 0.00 0.00 0.00 55 1019.1
20260502150112 45 351 0.0 4.0 0.00 0.00 0.00 53 1019.1
20260502140108 44 330 0.0 1.0 0.00 0.00 0.00 63 1019.2
20260502123004 36 327 0.0 0.0 0.00 0.00 0.00 85 1019.3
20260502121611 34 318 0.0 0.0 0.00 0.00 0.00 89 1019.3
20260502120121 32 318 0.0 0.0 0.00 0.00 0.00 90 1019.1
20260502114608 31 318 0.0 0.0 0.00 0.00 0.00 88 1019.1
20260502111509 31 318 0.0 0.0 0.00 0.00 0.00 87 1019.0
20260502110115 32 318 0.0 0.0 0.00 0.00 0.00 86 1018.9
20260502104514 32 318 0.0 0.0 0.00 0.00 0.00 85 1018.8
20260502103112 32 318 0.0 0.0 0.00 0.00 0.00 85 1018.7
20260502101618 32 318 0.0 0.0 0.00 0.00 0.00 84 1018.7
20260502100110 33 318 0.0 0.0 0.00 0.00 0.00 84 1018.7
20260502090107 34 318 0.0 0.0 0.00 0.00 0.00 80 1018.4
20260502070117 35 318 0.0 0.0 0.00 0.00 0.00 83 1018.2
20260502064605 35 318 0.0 0.0 0.00 0.00 0.00 83 1018.3
20260502063119 35 318 0.0 0.0 0.00 0.00 0.00 82 1018.3
20260502061603 35 318 0.0 0.0 0.00 0.00 0.00 81 1018.4
20260502060116 35 318 0.0 0.0 0.00 0.00 0.00 81 1018.5
20260502054504 35 318 0.0 0.0 0.00 0.00 0.00 81 1018.5
20260502053111 35 318 0.0 0.0 0.00 0.00 0.00 83 1018.5
20260502051619 35 318 0.0 0.0 0.00 0.00 0.00 80 1018.5